Year,Month,Day,Hour,Minute,Value (Times are PST for insolation in W/m^2)
2017,12,10,00,00,0.00
2017,12,10,00,01,0.00
2017,12,10,00,02,0.00
2017,12,10,00,03,0.00
2017,12,10,00,04,0.00
2017,12,10,00,05,0.00
2017,12,10,00,06,0.00
2017,12,10,00,07,0.00
2017,12,10,00,08,0.00
2017,12,10,00,09,0.00
2017,12,10,00,10,0.00
2017,12,10,00,11,0.00
2017,12,10,00,12,0.00
2017,12,10,00,13,0.00
2017,12,10,00,14,0.00
2017,12,10,00,15,0.00
2017,12,10,00,16,0.00
2017,12,10,00,17,0.00
2017,12,10,00,18,0.00
2017,12,10,00,19,0.00
2017,12,10,00,20,0.00
2017,12,10,00,21,0.00
2017,12,10,00,22,0.00
2017,12,10,00,23,0.00
2017,12,10,00,24,0.00
2017,12,10,00,25,0.00
2017,12,10,00,26,0.00
2017,12,10,00,27,0.00
2017,12,10,00,28,0.00
2017,12,10,00,29,0.00
2017,12,10,00,30,0.00
2017,12,10,00,31,0.00
2017,12,10,00,32,0.00
2017,12,10,00,33,0.00
2017,12,10,00,34,0.00
2017,12,10,00,35,0.00
2017,12,10,00,36,0.00
2017,12,10,00,37,0.00
2017,12,10,00,38,0.00
2017,12,10,00,39,0.00
2017,12,10,00,40,0.00
2017,12,10,00,41,0.00
2017,12,10,00,42,0.00
2017,12,10,00,43,0.00
2017,12,10,00,44,0.00
2017,12,10,00,45,0.00
2017,12,10,00,46,0.00
2017,12,10,00,47,0.00
2017,12,10,00,48,0.00
2017,12,10,00,49,0.00
2017,12,10,00,50,0.00
2017,12,10,00,51,0.00
2017,12,10,00,52,0.00
2017,12,10,00,53,0.00
2017,12,10,00,54,0.00
2017,12,10,00,55,0.00
2017,12,10,00,56,0.00
2017,12,10,00,57,0.00
2017,12,10,00,58,0.00
2017,12,10,00,59,0.00
2017,12,10,01,00,0.00
2017,12,10,01,01,0.00
2017,12,10,01,02,0.00
2017,12,10,01,03,0.00
2017,12,10,01,04,0.00
2017,12,10,01,05,0.00
2017,12,10,01,06,0.00
2017,12,10,01,07,0.00
2017,12,10,01,08,0.00
2017,12,10,01,09,0.00
2017,12,10,01,10,0.00
2017,12,10,01,11,0.00
2017,12,10,01,12,0.00
2017,12,10,01,13,0.00
2017,12,10,01,14,0.00
2017,12,10,01,15,0.00
2017,12,10,01,16,0.00
2017,12,10,01,17,0.00
2017,12,10,01,18,0.00
2017,12,10,01,19,0.00
2017,12,10,01,20,0.00
2017,12,10,01,21,0.00
2017,12,10,01,22,0.00
2017,12,10,01,23,0.00
2017,12,10,01,24,0.00
2017,12,10,01,25,0.00
2017,12,10,01,26,0.00
2017,12,10,01,27,0.00
2017,12,10,01,28,0.00
2017,12,10,01,29,0.00
2017,12,10,01,30,0.00
2017,12,10,01,31,0.00
2017,12,10,01,32,0.00
2017,12,10,01,33,0.00
2017,12,10,01,34,0.00
2017,12,10,01,35,0.00
2017,12,10,01,36,0.00
2017,12,10,01,37,0.00
2017,12,10,01,38,0.00
2017,12,10,01,39,0.00
2017,12,10,01,40,0.00
2017,12,10,01,41,0.00
2017,12,10,01,42,0.00
2017,12,10,01,43,0.00
2017,12,10,01,44,0.00
2017,12,10,01,45,0.00
2017,12,10,01,46,0.00
2017,12,10,01,47,0.00
2017,12,10,01,48,0.00
2017,12,10,01,49,0.00
2017,12,10,01,50,0.00
2017,12,10,01,51,0.00
2017,12,10,01,52,0.00
2017,12,10,01,53,0.00
2017,12,10,01,54,0.00
2017,12,10,01,55,0.00
2017,12,10,01,56,0.00
2017,12,10,01,57,0.00
2017,12,10,01,58,0.00
2017,12,10,01,59,0.00
2017,12,10,02,00,0.00
2017,12,10,02,01,0.00
2017,12,10,02,02,0.00
2017,12,10,02,03,0.00
2017,12,10,02,04,0.00
2017,12,10,02,05,0.00
2017,12,10,02,06,0.00
2017,12,10,02,07,0.00
2017,12,10,02,08,0.00
2017,12,10,02,09,0.00
2017,12,10,02,10,0.00
2017,12,10,02,11,0.00
2017,12,10,02,12,0.00
2017,12,10,02,13,0.00
2017,12,10,02,14,0.00
2017,12,10,02,15,0.00
2017,12,10,02,16,0.00
2017,12,10,02,17,0.00
2017,12,10,02,18,0.00
2017,12,10,02,19,0.00
2017,12,10,02,20,0.00
2017,12,10,02,21,0.00
2017,12,10,02,22,0.00
2017,12,10,02,23,0.00
2017,12,10,02,24,0.00
2017,12,10,02,25,0.00
2017,12,10,02,26,0.00
2017,12,10,02,27,0.00
2017,12,10,02,28,0.00
2017,12,10,02,29,0.00
2017,12,10,02,30,0.00
2017,12,10,02,31,0.00
2017,12,10,02,32,0.00
2017,12,10,02,33,0.00
2017,12,10,02,34,0.00
2017,12,10,02,35,0.00
2017,12,10,02,36,0.00
2017,12,10,02,37,0.00
2017,12,10,02,38,0.00
2017,12,10,02,39,0.00
2017,12,10,02,40,0.00
2017,12,10,02,41,0.00
2017,12,10,02,42,0.00
2017,12,10,02,43,0.00
2017,12,10,02,44,0.00
2017,12,10,02,45,0.00
2017,12,10,02,46,0.00
2017,12,10,02,47,0.00
2017,12,10,02,48,0.00
2017,12,10,02,49,0.00
2017,12,10,02,50,0.00
2017,12,10,02,51,0.00
2017,12,10,02,52,0.00
2017,12,10,02,53,0.00
2017,12,10,02,54,0.00
2017,12,10,02,55,0.00
2017,12,10,02,56,0.00
2017,12,10,02,57,0.00
2017,12,10,02,58,0.00
2017,12,10,02,59,0.00
2017,12,10,03,00,0.00
2017,12,10,03,01,0.00
2017,12,10,03,02,0.00
2017,12,10,03,03,0.00
2017,12,10,03,04,0.00
2017,12,10,03,05,0.00
2017,12,10,03,06,0.00
2017,12,10,03,07,0.00
2017,12,10,03,08,0.00
2017,12,10,03,09,0.00
2017,12,10,03,10,0.00
2017,12,10,03,11,0.00
2017,12,10,03,12,0.00
2017,12,10,03,13,0.00
2017,12,10,03,14,0.00
2017,12,10,03,15,0.00
2017,12,10,03,16,0.00
2017,12,10,03,17,0.00
2017,12,10,03,18,0.00
2017,12,10,03,19,0.00
2017,12,10,03,20,0.00
2017,12,10,03,21,0.00
2017,12,10,03,22,0.00
2017,12,10,03,23,0.00
2017,12,10,03,24,0.00
2017,12,10,03,25,0.00
2017,12,10,03,26,0.00
2017,12,10,03,27,0.00
2017,12,10,03,28,0.00
2017,12,10,03,29,0.00
2017,12,10,03,30,0.00
2017,12,10,03,31,0.00
2017,12,10,03,32,0.00
2017,12,10,03,33,0.00
2017,12,10,03,34,0.00
2017,12,10,03,35,0.00
2017,12,10,03,36,0.00
2017,12,10,03,37,0.00
2017,12,10,03,38,0.00
2017,12,10,03,39,0.00
2017,12,10,03,40,0.00
2017,12,10,03,41,0.00
2017,12,10,03,42,0.00
2017,12,10,03,43,0.00
2017,12,10,03,44,0.00
2017,12,10,03,45,0.00
2017,12,10,03,46,0.00
2017,12,10,03,47,0.00
2017,12,10,03,48,0.00
2017,12,10,03,49,0.00
2017,12,10,03,50,0.00
2017,12,10,03,51,0.00
2017,12,10,03,52,0.00
2017,12,10,03,53,0.00
2017,12,10,03,54,0.00
2017,12,10,03,55,0.00
2017,12,10,03,56,0.00
2017,12,10,03,57,0.00
2017,12,10,03,58,0.00
2017,12,10,03,59,0.00
2017,12,10,04,00,0.00
2017,12,10,04,01,0.00
2017,12,10,04,02,0.00
2017,12,10,04,03,0.00
2017,12,10,04,04,0.00
2017,12,10,04,05,0.00
2017,12,10,04,06,0.00
2017,12,10,04,07,0.00
2017,12,10,04,08,0.00
2017,12,10,04,09,0.00
2017,12,10,04,10,0.00
2017,12,10,04,11,0.00
2017,12,10,04,12,0.00
2017,12,10,04,13,0.00
2017,12,10,04,14,0.00
2017,12,10,04,15,0.00
2017,12,10,04,16,0.00
2017,12,10,04,17,0.00
2017,12,10,04,18,0.00
2017,12,10,04,19,0.00
2017,12,10,04,20,0.00
2017,12,10,04,21,0.00
2017,12,10,04,22,0.00
2017,12,10,04,23,0.00
2017,12,10,04,24,0.00
2017,12,10,04,25,0.00
2017,12,10,04,26,0.00
2017,12,10,04,27,0.00
2017,12,10,04,28,0.00
2017,12,10,04,29,0.00
2017,12,10,04,30,0.00
2017,12,10,04,31,0.00
2017,12,10,04,32,0.00
2017,12,10,04,33,0.00
2017,12,10,04,34,0.00
2017,12,10,04,35,0.00
2017,12,10,04,36,0.00
2017,12,10,04,37,0.00
2017,12,10,04,38,0.00
2017,12,10,04,39,0.00
2017,12,10,04,40,0.00
2017,12,10,04,41,0.00
2017,12,10,04,42,0.00
2017,12,10,04,43,0.00
2017,12,10,04,44,0.00
2017,12,10,04,45,0.00
2017,12,10,04,46,0.00
2017,12,10,04,47,0.00
2017,12,10,04,48,0.00
2017,12,10,04,49,0.00
2017,12,10,04,50,0.00
2017,12,10,04,51,0.00
2017,12,10,04,52,0.00
2017,12,10,04,53,0.00
2017,12,10,04,54,0.00
2017,12,10,04,55,0.00
2017,12,10,04,56,0.00
2017,12,10,04,57,0.00
2017,12,10,04,58,0.00
2017,12,10,04,59,0.00
2017,12,10,05,00,0.00
2017,12,10,05,01,0.00
2017,12,10,05,02,0.00
2017,12,10,05,03,0.00
2017,12,10,05,04,0.00
2017,12,10,05,05,0.00
2017,12,10,05,06,0.00
2017,12,10,05,07,0.00
2017,12,10,05,08,0.00
2017,12,10,05,09,0.00
2017,12,10,05,10,0.00
2017,12,10,05,11,0.00
2017,12,10,05,12,0.00
2017,12,10,05,13,0.00
2017,12,10,05,14,0.00
2017,12,10,05,15,0.00
2017,12,10,05,16,0.00
2017,12,10,05,17,0.00
2017,12,10,05,18,0.00
2017,12,10,05,19,0.00
2017,12,10,05,20,0.00
2017,12,10,05,21,0.00
2017,12,10,05,22,0.00
2017,12,10,05,23,0.00
2017,12,10,05,24,0.00
2017,12,10,05,25,0.00
2017,12,10,05,26,0.00
2017,12,10,05,27,0.00
2017,12,10,05,28,0.00
2017,12,10,05,29,0.00
2017,12,10,05,30,0.00
2017,12,10,05,31,0.00
2017,12,10,05,32,0.00
2017,12,10,05,33,0.00
2017,12,10,05,34,0.00
2017,12,10,05,35,0.00
2017,12,10,05,36,0.00
2017,12,10,05,37,0.00
2017,12,10,05,38,0.00
2017,12,10,05,39,0.00
2017,12,10,05,40,0.00
2017,12,10,05,41,0.00
2017,12,10,05,42,0.00
2017,12,10,05,43,0.00
2017,12,10,05,44,0.00
2017,12,10,05,45,0.00
2017,12,10,05,46,0.00
2017,12,10,05,47,0.00
2017,12,10,05,48,0.00
2017,12,10,05,49,0.00
2017,12,10,05,50,0.00
2017,12,10,05,51,0.00
2017,12,10,05,52,0.00
2017,12,10,05,53,0.00
2017,12,10,05,54,0.00
2017,12,10,05,55,0.00
2017,12,10,05,56,0.00
2017,12,10,05,57,0.00
2017,12,10,05,58,0.00
2017,12,10,05,59,0.00
2017,12,10,06,00,0.00
2017,12,10,06,01,0.00
2017,12,10,06,02,0.00
2017,12,10,06,03,0.00
2017,12,10,06,04,0.00
2017,12,10,06,05,0.00
2017,12,10,06,06,0.00
2017,12,10,06,07,0.00
2017,12,10,06,08,0.00
2017,12,10,06,09,0.00
2017,12,10,06,10,0.00
2017,12,10,06,11,0.00
2017,12,10,06,12,0.00
2017,12,10,06,13,0.00
2017,12,10,06,14,0.00
2017,12,10,06,15,0.00
2017,12,10,06,16,0.00
2017,12,10,06,17,0.00
2017,12,10,06,18,0.00
2017,12,10,06,19,0.00
2017,12,10,06,20,0.00
2017,12,10,06,21,0.00
2017,12,10,06,22,0.00
2017,12,10,06,23,0.00
2017,12,10,06,24,0.00
2017,12,10,06,25,0.00
2017,12,10,06,26,0.00
2017,12,10,06,27,0.00
2017,12,10,06,28,0.00
2017,12,10,06,29,0.00
2017,12,10,06,30,0.00
2017,12,10,06,31,0.00
2017,12,10,06,32,0.00
2017,12,10,06,33,0.00
2017,12,10,06,34,0.00
2017,12,10,06,35,0.00
2017,12,10,06,36,0.00
2017,12,10,06,37,0.00
2017,12,10,06,38,0.00
2017,12,10,06,39,0.00
2017,12,10,06,40,0.00
2017,12,10,06,41,0.00
2017,12,10,06,42,0.00
2017,12,10,06,43,0.00
2017,12,10,06,44,0.00
2017,12,10,06,45,0.00
2017,12,10,06,46,0.00
2017,12,10,06,47,0.00
2017,12,10,06,48,0.00
2017,12,10,06,49,0.00
2017,12,10,06,50,0.00
2017,12,10,06,51,0.00
2017,12,10,06,52,0.00
2017,12,10,06,53,0.00
2017,12,10,06,54,0.00
2017,12,10,06,55,0.00
2017,12,10,06,56,0.00
2017,12,10,06,57,0.00
2017,12,10,06,58,0.00
2017,12,10,06,59,0.00
2017,12,10,07,00,0.00
2017,12,10,07,01,0.00
2017,12,10,07,02,0.00
2017,12,10,07,03,0.00
2017,12,10,07,04,0.00
2017,12,10,07,05,0.00
2017,12,10,07,06,0.00
2017,12,10,07,07,0.00
2017,12,10,07,08,0.00
2017,12,10,07,09,0.00
2017,12,10,07,10,0.00
2017,12,10,07,11,0.00
2017,12,10,07,12,0.00
2017,12,10,07,13,0.00
2017,12,10,07,14,0.00
2017,12,10,07,15,0.00
2017,12,10,07,16,0.00
2017,12,10,07,17,0.00
2017,12,10,07,18,0.00
2017,12,10,07,19,0.00
2017,12,10,07,20,0.00
2017,12,10,07,21,0.00
2017,12,10,07,22,0.00
2017,12,10,07,23,0.00
2017,12,10,07,24,0.00
2017,12,10,07,25,0.00
2017,12,10,07,26,0.00
2017,12,10,07,27,0.00
2017,12,10,07,28,0.00
2017,12,10,07,29,0.00
2017,12,10,07,30,0.00
2017,12,10,07,31,0.00
2017,12,10,07,32,0.00
2017,12,10,07,33,0.00
2017,12,10,07,34,0.00
2017,12,10,07,35,0.00
2017,12,10,07,36,0.00
2017,12,10,07,37,0.00
2017,12,10,07,38,0.00
2017,12,10,07,39,0.00
2017,12,10,07,40,0.00
2017,12,10,07,41,0.00
2017,12,10,07,42,0.00
2017,12,10,07,43,0.00
2017,12,10,07,44,0.00
2017,12,10,07,45,0.00
2017,12,10,07,46,0.00
2017,12,10,07,47,0.00
2017,12,10,07,48,0.00
2017,12,10,07,49,0.00
2017,12,10,07,50,0.00
2017,12,10,07,51,0.00
2017,12,10,07,52,0.00
2017,12,10,07,53,0.00
2017,12,10,07,54,0.00
2017,12,10,07,55,0.00
2017,12,10,07,56,0.00
2017,12,10,07,57,0.00
2017,12,10,07,58,0.00
2017,12,10,07,59,0.00
2017,12,10,08,00,1.40
2017,12,10,08,01,5.00
2017,12,10,08,02,5.00
2017,12,10,08,03,6.20
2017,12,10,08,04,7.00
2017,12,10,08,05,7.10
2017,12,10,08,06,9.00
2017,12,10,08,07,9.00
2017,12,10,08,08,9.80
2017,12,10,08,09,11.00
2017,12,10,08,10,11.00
2017,12,10,08,11,11.00
2017,12,10,08,12,11.90
2017,12,10,08,13,12.00
2017,12,10,08,14,12.50
2017,12,10,08,15,14.00
2017,12,10,08,16,14.00
2017,12,10,08,17,15.20
2017,12,10,08,18,16.00
2017,12,10,08,19,17.80
2017,12,10,08,20,18.00
2017,12,10,08,21,18.20
2017,12,10,08,22,19.80
2017,12,10,08,23,21.00
2017,12,10,08,24,22.20
2017,12,10,08,25,23.00
2017,12,10,08,26,24.80
2017,12,10,08,27,25.10
2017,12,10,08,28,26.00
2017,12,10,08,29,26.80
2017,12,10,08,30,28.00
2017,12,10,08,31,29.30
2017,12,10,08,32,30.00
2017,12,10,08,33,30.00
2017,12,10,08,34,30.00
2017,12,10,08,35,30.50
2017,12,10,08,36,32.00
2017,12,10,08,37,32.00
2017,12,10,08,38,30.70
2017,12,10,08,39,30.00
2017,12,10,08,40,31.80
2017,12,10,08,41,32.00
2017,12,10,08,42,32.00
2017,12,10,08,43,32.40
2017,12,10,08,44,33.00
2017,12,10,08,45,33.00
2017,12,10,08,46,33.00
2017,12,10,08,47,33.00
2017,12,10,08,48,35.00
2017,12,10,08,49,35.00
2017,12,10,08,50,35.00
2017,12,10,08,51,36.00
2017,12,10,08,52,37.00
2017,12,10,08,53,38.50
2017,12,10,08,54,39.00
2017,12,10,08,55,40.30
2017,12,10,08,56,42.60
2017,12,10,08,57,44.80
2017,12,10,08,58,46.50
2017,12,10,08,59,48.30
2017,12,10,09,00,49.00
2017,12,10,09,01,50.80
2017,12,10,09,02,51.30
2017,12,10,09,03,53.00
2017,12,10,09,04,53.40
2017,12,10,09,05,54.00
2017,12,10,09,06,54.00
2017,12,10,09,07,54.00
2017,12,10,09,08,55.80
2017,12,10,09,09,56.30
2017,12,10,09,10,58.00
2017,12,10,09,11,58.00
2017,12,10,09,12,59.10
2017,12,10,09,13,60.00
2017,12,10,09,14,60.00
2017,12,10,09,15,61.70
2017,12,10,09,16,62.00
2017,12,10,09,17,62.30
2017,12,10,09,18,63.00
2017,12,10,09,19,63.00
2017,12,10,09,20,64.30
2017,12,10,09,21,66.50
2017,12,10,09,22,68.80
2017,12,10,09,23,69.10
2017,12,10,09,24,70.00
2017,12,10,09,25,70.80
2017,12,10,09,26,72.00
2017,12,10,09,27,73.20
2017,12,10,09,28,74.00
2017,12,10,09,29,75.80
2017,12,10,09,30,77.30
2017,12,10,09,31,79.60
2017,12,10,09,32,81.00
2017,12,10,09,33,82.10
2017,12,10,09,34,83.60
2017,12,10,09,35,87.00
2017,12,10,09,36,89.80
2017,12,10,09,37,90.70
2017,12,10,09,38,94.50
2017,12,10,09,39,92.20
2017,12,10,09,40,91.00
2017,12,10,09,41,92.30
2017,12,10,09,42,96.00
2017,12,10,09,43,97.00
2017,12,10,09,44,99.30
2017,12,10,09,45,107.50
2017,12,10,09,46,106.30
2017,12,10,09,47,102.00
2017,12,10,09,48,103.20
2017,12,10,09,49,104.80
2017,12,10,09,50,105.00
2017,12,10,09,51,105.30
2017,12,10,09,52,108.00
2017,12,10,09,53,111.80
2017,12,10,09,54,115.60
2017,12,10,09,55,163.90
2017,12,10,09,56,144.00
2017,12,10,09,57,127.90
2017,12,10,09,58,139.00
2017,12,10,09,59,139.00
2017,12,10,10,00,137.50
2017,12,10,10,01,143.30
2017,12,10,10,02,184.40
2017,12,10,10,03,202.00
2017,12,10,10,04,150.30
2017,12,10,10,05,143.80
2017,12,10,10,06,163.30
2017,12,10,10,07,198.70
2017,12,10,10,08,187.00
2017,12,10,10,09,147.30
2017,12,10,10,10,143.60
2017,12,10,10,11,146.20
2017,12,10,10,12,209.70
2017,12,10,10,13,234.20
2017,12,10,10,14,293.10
2017,12,10,10,15,282.80
2017,12,10,10,16,270.10
2017,12,10,10,17,204.80
2017,12,10,10,18,125.20
2017,12,10,10,19,113.20
2017,12,10,10,20,81.30
2017,12,10,10,21,77.00
2017,12,10,10,22,76.50
2017,12,10,10,23,74.70
2017,12,10,10,24,79.50
2017,12,10,10,25,90.00
2017,12,10,10,26,95.20
2017,12,10,10,27,81.50
2017,12,10,10,28,74.00
2017,12,10,10,29,69.30
2017,12,10,10,30,63.70
2017,12,10,10,31,59.10
2017,12,10,10,32,56.20
2017,12,10,10,33,57.50
2017,12,10,10,34,71.20
2017,12,10,10,35,81.00
2017,12,10,10,36,65.70
2017,12,10,10,37,56.00
2017,12,10,10,38,60.70
2017,12,10,10,39,68.90
2017,12,10,10,40,85.20
2017,12,10,10,41,102.40
2017,12,10,10,42,127.40
2017,12,10,10,43,130.10
2017,12,10,10,44,143.80
2017,12,10,10,45,149.50
2017,12,10,10,46,103.30
2017,12,10,10,47,82.40
2017,12,10,10,48,94.60
2017,12,10,10,49,96.60
2017,12,10,10,50,79.00
2017,12,10,10,51,67.70
2017,12,10,10,52,61.20
2017,12,10,10,53,58.20
2017,12,10,10,54,112.10
2017,12,10,10,55,186.30
2017,12,10,10,56,163.60
2017,12,10,10,57,108.60
2017,12,10,10,58,83.30
2017,12,10,10,59,77.40
2017,12,10,11,00,63.50
2017,12,10,11,01,58.00
2017,12,10,11,02,57.40
2017,12,10,11,03,57.60
2017,12,10,11,04,61.00
2017,12,10,11,05,62.60
2017,12,10,11,06,71.30
2017,12,10,11,07,94.60
2017,12,10,11,08,120.40
2017,12,10,11,09,159.00
2017,12,10,11,10,204.70
2017,12,10,11,11,252.20
2017,12,10,11,12,275.50
2017,12,10,11,13,278.80
2017,12,10,11,14,280.80
2017,12,10,11,15,281.00
2017,12,10,11,16,281.60
2017,12,10,11,17,283.00
2017,12,10,11,18,283.00
2017,12,10,11,19,283.00
2017,12,10,11,20,284.50
2017,12,10,11,21,285.10
2017,12,10,11,22,286.70
2017,12,10,11,23,282.80
2017,12,10,11,24,276.80
2017,12,10,11,25,284.20
2017,12,10,11,26,291.30
2017,12,10,11,27,292.00
2017,12,10,11,28,291.60
2017,12,10,11,29,278.10
2017,12,10,11,30,239.60
2017,12,10,11,31,162.00
2017,12,10,11,32,121.40
2017,12,10,11,33,123.60
2017,12,10,11,34,118.70
2017,12,10,11,35,111.30
2017,12,10,11,36,100.70
2017,12,10,11,37,82.70
2017,12,10,11,38,91.80
2017,12,10,11,39,106.30
2017,12,10,11,40,133.30
2017,12,10,11,41,169.80
2017,12,10,11,42,234.00
2017,12,10,11,43,288.40
2017,12,10,11,44,297.60
2017,12,10,11,45,298.20
2017,12,10,11,46,297.00
2017,12,10,11,47,295.70
2017,12,10,11,48,294.20
2017,12,10,11,49,294.70
2017,12,10,11,50,282.90
2017,12,10,11,51,235.80
2017,12,10,11,52,171.80
2017,12,10,11,53,122.90
2017,12,10,11,54,95.80
2017,12,10,11,55,87.00
2017,12,10,11,56,89.60
2017,12,10,11,57,117.20
2017,12,10,11,58,124.40
2017,12,10,11,59,120.90
2017,12,10,12,00,106.10
2017,12,10,12,01,87.90
2017,12,10,12,02,83.20
2017,12,10,12,03,83.00
2017,12,10,12,04,83.00
2017,12,10,12,05,83.80
2017,12,10,12,06,87.90
2017,12,10,12,07,87.40
2017,12,10,12,08,84.00
2017,12,10,12,09,87.10
2017,12,10,12,10,115.60
2017,12,10,12,11,127.00
2017,12,10,12,12,124.50
2017,12,10,12,13,121.90
2017,12,10,12,14,132.70
2017,12,10,12,15,142.90
2017,12,10,12,16,136.60
2017,12,10,12,17,157.90
2017,12,10,12,18,176.70
2017,12,10,12,19,174.00
2017,12,10,12,20,145.80
2017,12,10,12,21,125.70
2017,12,10,12,22,115.40
2017,12,10,12,23,145.10
2017,12,10,12,24,182.00
2017,12,10,12,25,156.30
2017,12,10,12,26,106.30
2017,12,10,12,27,75.20
2017,12,10,12,28,74.00
2017,12,10,12,29,76.00
2017,12,10,12,30,85.30
2017,12,10,12,31,90.70
2017,12,10,12,32,104.70
2017,12,10,12,33,123.10
2017,12,10,12,34,162.80
2017,12,10,12,35,168.00
2017,12,10,12,36,169.00
2017,12,10,12,37,195.60
2017,12,10,12,38,219.20
2017,12,10,12,39,243.90
2017,12,10,12,40,261.40
2017,12,10,12,41,236.00
2017,12,10,12,42,192.50
2017,12,10,12,43,197.90
2017,12,10,12,44,192.60
2017,12,10,12,45,144.20
2017,12,10,12,46,113.30
2017,12,10,12,47,110.40
2017,12,10,12,48,116.50
2017,12,10,12,49,135.50
2017,12,10,12,50,185.80
2017,12,10,12,51,219.10
2017,12,10,12,52,220.40
2017,12,10,12,53,150.60
2017,12,10,12,54,184.80
2017,12,10,12,55,265.90
2017,12,10,12,56,283.70
2017,12,10,12,57,249.80
2017,12,10,12,58,210.90
2017,12,10,12,59,123.80
2017,12,10,13,00,87.70
2017,12,10,13,01,99.90
2017,12,10,13,02,116.00
2017,12,10,13,03,134.00
2017,12,10,13,04,219.80
2017,12,10,13,05,275.20
2017,12,10,13,06,276.30
2017,12,10,13,07,274.30
2017,12,10,13,08,276.00
2017,12,10,13,09,276.00
2017,12,10,13,10,275.00
2017,12,10,13,11,272.70
2017,12,10,13,12,261.40
2017,12,10,13,13,241.90
2017,12,10,13,14,266.00
2017,12,10,13,15,272.00
2017,12,10,13,16,271.60
2017,12,10,13,17,271.00
2017,12,10,13,18,269.70
2017,12,10,13,19,269.00
2017,12,10,13,20,267.10
2017,12,10,13,21,264.90
2017,12,10,13,22,264.00
2017,12,10,13,23,264.00
2017,12,10,13,24,264.00
2017,12,10,13,25,260.10
2017,12,10,13,26,238.30
2017,12,10,13,27,219.50
2017,12,10,13,28,205.20
2017,12,10,13,29,231.50
2017,12,10,13,30,252.50
2017,12,10,13,31,254.00
2017,12,10,13,32,253.00
2017,12,10,13,33,253.00
2017,12,10,13,34,253.00
2017,12,10,13,35,250.90
2017,12,10,13,36,249.50
2017,12,10,13,37,248.00
2017,12,10,13,38,245.90
2017,12,10,13,39,244.00
2017,12,10,13,40,243.20
2017,12,10,13,41,241.20
2017,12,10,13,42,239.00
2017,12,10,13,43,238.50
2017,12,10,13,44,235.10
2017,12,10,13,45,229.40
2017,12,10,13,46,227.00
2017,12,10,13,47,221.70
2017,12,10,13,48,224.40
2017,12,10,13,49,222.70
2017,12,10,13,50,219.20
2017,12,10,13,51,204.10
2017,12,10,13,52,166.30
2017,12,10,13,53,119.10
2017,12,10,13,54,93.10
2017,12,10,13,55,86.40
2017,12,10,13,56,95.10
2017,12,10,13,57,119.60
2017,12,10,13,58,105.70
2017,12,10,13,59,78.60
2017,12,10,14,00,68.90
2017,12,10,14,01,64.70
2017,12,10,14,02,58.40
2017,12,10,14,03,56.60
2017,12,10,14,04,61.20
2017,12,10,14,05,64.20
2017,12,10,14,06,68.70
2017,12,10,14,07,98.60
2017,12,10,14,08,113.00
2017,12,10,14,09,94.90
2017,12,10,14,10,91.00
2017,12,10,14,11,120.00
2017,12,10,14,12,151.80
2017,12,10,14,13,148.20
2017,12,10,14,14,137.10
2017,12,10,14,15,115.30
2017,12,10,14,16,142.00
2017,12,10,14,17,162.90
2017,12,10,14,18,133.70
2017,12,10,14,19,125.80
2017,12,10,14,20,133.20
2017,12,10,14,21,144.80
2017,12,10,14,22,154.10
2017,12,10,14,23,161.30
2017,12,10,14,24,160.00
2017,12,10,14,25,159.50
2017,12,10,14,26,155.30
2017,12,10,14,27,149.40
2017,12,10,14,28,148.00
2017,12,10,14,29,143.40
2017,12,10,14,30,126.50
2017,12,10,14,31,119.70
2017,12,10,14,32,128.50
2017,12,10,14,33,121.30
2017,12,10,14,34,92.50
2017,12,10,14,35,65.20
2017,12,10,14,36,49.30
2017,12,10,14,37,44.30
2017,12,10,14,38,44.30
2017,12,10,14,39,46.00
2017,12,10,14,40,47.20
2017,12,10,14,41,50.00
2017,12,10,14,42,51.00
2017,12,10,14,43,45.70
2017,12,10,14,44,40.40
2017,12,10,14,45,38.70
2017,12,10,14,46,36.40
2017,12,10,14,47,34.20
2017,12,10,14,48,33.00
2017,12,10,14,49,33.00
2017,12,10,14,50,33.00
2017,12,10,14,51,33.00
2017,12,10,14,52,33.30
2017,12,10,14,53,36.00
2017,12,10,14,54,40.10
2017,12,10,14,55,43.00
2017,12,10,14,56,45.20
2017,12,10,14,57,43.00
2017,12,10,14,58,40.20
2017,12,10,14,59,38.30
2017,12,10,15,00,34.20
2017,12,10,15,01,33.10
2017,12,10,15,02,35.00
2017,12,10,15,03,33.10
2017,12,10,15,04,30.50
2017,12,10,15,05,30.00
2017,12,10,15,06,27.70
2017,12,10,15,07,25.70
2017,12,10,15,08,24.20
2017,12,10,15,09,21.90
2017,12,10,15,10,21.00
2017,12,10,15,11,21.00
2017,12,10,15,12,22.90
2017,12,10,15,13,25.40
2017,12,10,15,14,28.00
2017,12,10,15,15,27.20
2017,12,10,15,16,24.40
2017,12,10,15,17,23.00
2017,12,10,15,18,21.40
2017,12,10,15,19,21.00
2017,12,10,15,20,21.00
2017,12,10,15,21,21.00
2017,12,10,15,22,21.00
2017,12,10,15,23,22.00
2017,12,10,15,24,21.70
2017,12,10,15,25,19.40
2017,12,10,15,26,19.00
2017,12,10,15,27,18.00
2017,12,10,15,28,17.40
2017,12,10,15,29,16.00
2017,12,10,15,30,16.00
2017,12,10,15,31,16.00
2017,12,10,15,32,16.00
2017,12,10,15,33,16.00
2017,12,10,15,34,16.00
2017,12,10,15,35,16.00
2017,12,10,15,36,16.00
2017,12,10,15,37,16.00
2017,12,10,15,38,16.00
2017,12,10,15,39,16.00
2017,12,10,15,40,16.00
2017,12,10,15,41,14.00
2017,12,10,15,42,14.00
2017,12,10,15,43,14.00
2017,12,10,15,44,14.00
2017,12,10,15,45,12.70
2017,12,10,15,46,12.00
2017,12,10,15,47,12.00
2017,12,10,15,48,11.00
2017,12,10,15,49,11.00
2017,12,10,15,50,11.00
2017,12,10,15,51,11.00
2017,12,10,15,52,11.00
2017,12,10,15,53,11.00
2017,12,10,15,54,11.00
2017,12,10,15,55,10.70
2017,12,10,15,56,9.00
2017,12,10,15,57,9.00
2017,12,10,15,58,9.00
2017,12,10,15,59,9.00
2017,12,10,16,00,9.00
2017,12,10,16,01,9.00
2017,12,10,16,02,9.00
2017,12,10,16,03,9.00
2017,12,10,16,04,9.00
2017,12,10,16,05,9.00
2017,12,10,16,06,7.70
2017,12,10,16,07,7.00
2017,12,10,16,08,7.00
2017,12,10,16,09,7.00
2017,12,10,16,10,6.50
2017,12,10,16,11,5.00
2017,12,10,16,12,5.00
2017,12,10,16,13,5.00
2017,12,10,16,14,5.00
2017,12,10,16,15,5.00
2017,12,10,16,16,0.00
2017,12,10,16,17,0.00
2017,12,10,16,18,0.00
2017,12,10,16,19,0.00
2017,12,10,16,20,0.00
2017,12,10,16,21,0.00
2017,12,10,16,22,0.00
2017,12,10,16,23,0.00
2017,12,10,16,24,0.00
2017,12,10,16,25,0.00
2017,12,10,16,26,0.00
2017,12,10,16,27,0.00
2017,12,10,16,28,0.00
2017,12,10,16,29,0.00
2017,12,10,16,30,0.00
2017,12,10,16,31,0.00
2017,12,10,16,32,0.00
2017,12,10,16,33,0.00
2017,12,10,16,34,0.00
2017,12,10,16,35,0.00
2017,12,10,16,36,0.00
2017,12,10,16,37,0.00
2017,12,10,16,38,0.00
2017,12,10,16,39,0.00
2017,12,10,16,40,0.00
2017,12,10,16,41,0.00
2017,12,10,16,42,0.00
2017,12,10,16,43,0.00
2017,12,10,16,44,0.00
2017,12,10,16,45,0.00
2017,12,10,16,46,0.00
2017,12,10,16,47,0.00
2017,12,10,16,48,0.00
2017,12,10,16,49,0.00
2017,12,10,16,50,0.00
2017,12,10,16,51,0.00
2017,12,10,16,52,0.00
2017,12,10,16,53,0.00
2017,12,10,16,54,0.00
2017,12,10,16,55,0.00
2017,12,10,16,56,0.00
2017,12,10,16,57,0.00
2017,12,10,16,58,0.00
2017,12,10,16,59,0.00
2017,12,10,17,00,0.00
2017,12,10,17,01,0.00
2017,12,10,17,02,0.00
2017,12,10,17,03,0.00
2017,12,10,17,04,0.00
2017,12,10,17,05,0.00
2017,12,10,17,06,0.00
2017,12,10,17,07,0.00
2017,12,10,17,08,0.00
2017,12,10,17,09,0.00
2017,12,10,17,10,0.00
2017,12,10,17,11,0.00
2017,12,10,17,12,0.00
2017,12,10,17,13,0.00
2017,12,10,17,14,0.00
2017,12,10,17,15,0.00
2017,12,10,17,16,0.00
2017,12,10,17,17,0.00
2017,12,10,17,18,0.00
2017,12,10,17,19,0.00
2017,12,10,17,20,0.00
2017,12,10,17,21,0.00
2017,12,10,17,22,0.00
2017,12,10,17,23,0.00
2017,12,10,17,24,0.00
2017,12,10,17,25,0.00
2017,12,10,17,26,0.00
2017,12,10,17,27,0.00
2017,12,10,17,28,0.00
2017,12,10,17,29,0.00
2017,12,10,17,30,0.00
2017,12,10,17,31,0.00
2017,12,10,17,32,0.00
2017,12,10,17,33,0.00
2017,12,10,17,34,0.00
2017,12,10,17,35,0.00